Regional Weather Roundup
Issued by NWS Nashville, TN

Home | Current Version | Previous Version | Text Only | Print | Product List | Glossary On
Versions: 1 2 3 4 5 6 7 8 9 10 11 12 13 14 15 16 17 18 19 20 21 22 23 24 25 26 27 28 29 30 31 32 33 34 35 36 37 38 39 40 41 42 43 44 45 46 47 48 49 50
000
ASUS44 KOHX 250510
RWROHX
MIDDLE TENNESSEE HOURLY WEATHER ROUNDUP
NATIONAL WEATHER SERVICE NASHVILLE TN
1200 AM CDT SUN SEP 25 2016

NOTE: "FAIR" INDICATES FEW OR NO CLOUDS BELOW 12,000 FEET WITH
NO SIGNIFICANT WEATHER AND/OR OBSTRUCTIONS TO VISIBILITY.

* THESE REPORTS ARE NOT UNDER NWS QUALITY CONTROL AND MAY NOT
  REPORT WEATHER SUCH AS PRECIPITATION AND FOG.


TNZ005>011-023>034-057-059-062>066-078-080-250600
...NORTHERN MIDDLE TENNESSEE...

CITY           SKY/WX    TMP DP  RH WIND       PRES   REMARKS
CLARKSVILLE    CLEAR     69  65  86 CALM      30.07S
CROSSVILLE     CLEAR     65  62  90 CALM      30.14S
GALLATIN       CLEAR     68  66  94 CALM      30.10S
DICKSON        CLEAR     69  66  90 CALM      30.08S
LEBANON        CLEAR     65  63  93 CALM      30.06
LIVINGSTON     CLEAR     71  63  76 CALM      30.12
NASHVILLE      CLEAR     72  65  78 CALM      30.07S
WEST NASHVILLE CLEAR     68  66  94 CALM      30.07R
PORTLAND       CLEAR     68  66  94 CALM      30.08F
SMYRNA         CLEAR     68  65  90 CALM      30.08S
SPARTA         CLEAR     64  64 100 CALM      30.09S
SPRINGFIELD    MOCLDY    68  66  94 CALM      30.07S
$$
TNZ056-058-060-061-075>077-079-093>097-250600
...SOUTHERN MIDDLE TENNESSEE...

CITY           SKY/WX    TMP DP  RH WIND       PRES   REMARKS
COLUMBIA         N/A    N/A N/A N/A CALM      30.06S
FAYETTEVILLE   CLOUDY    72  64  78 NE7       30.06S
MCMINNVILLE    CLEAR     66  66 100 NE47G85   30.09S
SHELBYVILLE    CLEAR     70  66  88 E5        30.08S
TULLAHOMA      CLEAR     68  63  83 CALM      30.09S
WINCHESTER     CLEAR     66  64  94 CALM      30.08S
$$


...KEY TO REMARKS...
VSB - VISIBILITY IN MILES
WCI - WIND CHILL INDEX
HX  - HEAT INDEX




USA.gov is the U.S. government's official web portal to all federal, state and local government web resources and services.